COSMOS 1275 DEB, 12711

Orbit data source: Space-Track

COSMOS 1275 DEB, 12711 is space debris in LEO originally from a launch on Thu, 04 Jun 1981 UTC launched from the Plesetsk Missile And Space Complex (PKMTR). Debris objects in space refer to the collection of defunct objects orbiting the Earth. Examples of debris include non-operational satellites, rocket bodies, and fragments generated from explosions, collisions, or faulty payload assembly.

Loading next visibility...
Identifier
12711, 1981-053BF
Orbit
LEO
Country
Flag of CISCIS
Related business
Manufacturer
Unknown
Mission
Spacecraft
Bus & Motor
Unknown
Mass
Unknown
Launch date (UTC)
1981-06-04 (45 years ago)
Launch vehicle
Unknown
Launch site
Plesetsk Missile And Space Complex (PKMTR)
Object type
Payload
Rocket body
Debris
Shape & HBR
Unknown shape, 0.1 m
Radar Cross Section
Small (<0.1 m²)

Expand to show TLE details & history
Last TLE update: 21 hours ago

TLE from 21 hours ago
0 COSMOS 1275 DEB
1 12711U 81053BF  26145.17847483  .00000427  00000-0  42478-3 0  9990
2 12711  82.9647  36.1696 0062044 202.3169 312.3273 13.75144310240095
Epoch: 2026-05-25T04:17Z
TLE epoch observation values (Epoch: 2026-05-25T04:17:00.225Z)
Latitude
25.70653°
Longitude
-94.23952°
Altitude
953.677 km
Speed
7.392 km/s
True Right ascension
14h 11m 07s
True Declination
25° 34' 33"
Sunlit
Object was in full shadow at epoch
Visualization orbit readout
Latitude
Unknown
Longitude
Unknown
Altitude
Unknown
Speed
Unknown
Apparent Right ascension
Unknown
Apparent Declination
Unknown
Sunlit
N/A
Visualization observer readout
Local Sidereal Time
10:19:17
Azimuth
Unknown
Elevation
Unknown
Doppler factor
Unknown
Orbital elements
Apogee altitude
1,023.95 km
Perigee altitude
932.665 km
Semi-major axis
7,356.445 km
Eccentricity
0.0062
Inclination
82.9647°
RAAN
36.1696°
Arg. of periapsis
202.3169°
True anomaly
311.79892°
Mean anomaly
312.3273°
Eccentric anomaly
312.06339°
Mean motion
3.43986 °/min
Orbital period
104.66 mins
BSTAR
0.00042478
Loading maneuver chart data...
Computing Atmospheric mass density...

Documentation

Showing up to 5 results
|